Time,TemperatureF,DewpointF,PressureIn,WindDirection,WindDirectionDegrees,WindSpeedMPH,WindSpeedGustMPH,Humidity,HourlyPrecipIn,Conditions,Clouds,dailyrainin,SoftwareType,DateUTC
2013-02-26 00:01:00,23.5,20.7,30.08,North,355,0.0,0.0,89,0.00,,,0.00,Wunderground v.1.15,2013-02-26 05:01:00,
2013-02-26 00:02:00,23.5,20.7,30.08,North,355,0.0,0.0,89,0.00,,,0.00,Wunderground v.1.15,2013-02-26 05:02:00,
2013-02-26 00:03:00,23.5,20.7,30.08,North,355,0.0,0.0,89,0.00,,,0.00,Wunderground v.1.15,2013-02-26 05:03:00,
2013-02-26 00:08:00,23.4,20.6,30.09,North,355,0.0,0.0,89,0.00,,,0.00,Wunderground v.1.15,2013-02-26 05:08:00,
2013-02-26 00:13:00,23.3,20.8,30.09,North,355,0.0,0.0,90,0.00,,,0.00,Wunderground v.1.15,2013-02-26 05:13:00,
2013-02-26 00:18:00,23.4,20.9,30.09,North,355,0.0,0.0,90,0.00,,,0.00,Wunderground v.1.15,2013-02-26 05:18:00,
2013-02-26 00:23:00,23.3,20.8,30.10,North,355,0.0,0.0,90,0.00,,,0.00,Wunderground v.1.15,2013-02-26 05:23:00,
2013-02-26 00:28:00,23.2,20.7,30.10,North,355,0.0,0.0,90,0.00,,,0.00,Wunderground v.1.15,2013-02-26 05:28:00,
2013-02-26 00:33:00,23.1,20.6,30.10,North,355,0.0,0.0,90,0.00,,,0.00,Wunderground v.1.15,2013-02-26 05:33:00,
2013-02-26 00:39:00,22.9,20.4,30.09,North,355,0.0,0.0,90,0.00,,,0.00,Wunderground v.1.15,2013-02-26 05:39:00,
2013-02-26 00:45:00,22.8,20.3,30.09,North,355,0.0,0.0,90,0.00,,,0.00,Wunderground v.1.15,2013-02-26 05:45:00,
2013-02-26 00:50:00,22.7,20.2,30.08,North,355,0.0,0.0,90,0.00,,,0.00,Wunderground v.1.15,2013-02-26 05:50:00,
2013-02-26 00:55:00,22.6,20.4,30.08,North,355,0.0,0.0,91,0.00,,,0.00,Wunderground v.1.15,2013-02-26 05:55:00,
2013-02-26 01:01:00,22.5,20.3,30.09,North,355,0.0,0.0,91,0.00,,,0.00,Wunderground v.1.15,2013-02-26 06:01:00,
2013-02-26 01:06:00,22.4,20.2,30.09,North,355,0.0,0.0,91,0.00,,,0.00,Wunderground v.1.15,2013-02-26 06:06:00,
2013-02-26 01:11:00,22.4,20.2,30.09,North,355,0.0,0.0,91,0.00,,,0.00,Wunderground v.1.15,2013-02-26 06:11:00,
2013-02-26 01:17:00,22.4,20.2,30.09,North,355,0.0,0.0,91,0.00,,,0.00,Wunderground v.1.15,2013-02-26 06:17:00,
2013-02-26 01:22:00,22.4,20.4,30.09,North,355,0.0,0.0,92,0.00,,,0.00,Wunderground v.1.15,2013-02-26 06:22:00,
2013-02-26 01:27:00,22.6,20.6,30.09,North,355,0.0,0.0,92,0.00,,,0.00,Wunderground v.1.15,2013-02-26 06:27:00,
2013-02-26 01:33:00,22.5,20.5,30.09,North,355,0.0,0.0,92,0.00,,,0.00,Wunderground v.1.15,2013-02-26 06:33:00,
2013-02-26 01:38:00,22.4,20.2,30.09,North,355,0.0,0.0,91,0.00,,,0.00,Wunderground v.1.15,2013-02-26 06:38:00,
2013-02-26 01:44:00,22.6,20.6,30.09,North,355,0.0,0.0,92,0.00,,,0.00,Wunderground v.1.15,2013-02-26 06:44:00,
2013-02-26 01:50:00,22.6,20.6,30.09,North,355,0.0,0.0,92,0.00,,,0.00,Wunderground v.1.15,2013-02-26 06:50:00,
2013-02-26 01:55:00,22.7,20.7,30.08,North,355,0.0,0.0,92,0.00,,,0.00,Wunderground v.1.15,2013-02-26 06:55:00,
2013-02-26 02:01:00,22.7,20.7,30.08,North,355,0.0,0.0,92,0.00,,,0.00,Wunderground v.1.15,2013-02-26 07:01:00,
2013-02-26 02:06:00,22.7,20.7,30.08,North,355,0.0,0.0,92,0.00,,,0.00,Wunderground v.1.15,2013-02-26 07:06:00,
2013-02-26 02:12:00,22.7,20.7,30.08,North,355,0.0,0.0,92,0.00,,,0.00,Wunderground v.1.15,2013-02-26 07:12:00,
2013-02-26 02:18:00,22.7,20.5,30.08,North,355,0.0,0.0,91,0.00,,,0.00,Wunderground v.1.15,2013-02-26 07:18:00,
2013-02-26 02:23:00,22.7,20.5,30.08,North,355,0.0,0.0,91,0.00,,,0.00,Wunderground v.1.15,2013-02-26 07:23:00,
2013-02-26 02:28:00,22.8,20.6,30.08,North,355,0.0,0.0,91,0.00,,,0.00,Wunderground v.1.15,2013-02-26 07:28:00,
2013-02-26 02:33:00,22.7,20.5,30.07,North,355,0.0,0.0,91,0.00,,,0.00,Wunderground v.1.15,2013-02-26 07:33:00,
2013-02-26 02:38:00,22.7,20.5,30.07,North,355,0.0,0.0,91,0.00,,,0.00,Wunderground v.1.15,2013-02-26 07:38:00,
2013-02-26 02:43:00,22.8,20.6,30.06,North,355,0.0,0.0,91,0.00,,,0.00,Wunderground v.1.15,2013-02-26 07:43:00,
2013-02-26 02:48:00,22.8,20.6,30.05,North,355,0.0,0.0,91,0.00,,,0.00,Wunderground v.1.15,2013-02-26 07:48:00,
2013-02-26 02:53:00,22.8,20.6,30.04,North,355,0.0,0.0,91,0.00,,,0.00,Wunderground v.1.15,2013-02-26 07:53:00,
2013-02-26 02:58:00,22.9,20.9,30.04,North,355,0.0,0.0,92,0.00,,,0.00,Wunderground v.1.15,2013-02-26 07:58:00,
2013-02-26 03:04:00,23.0,21.0,30.04,North,355,0.0,0.0,92,0.00,,,0.00,Wunderground v.1.15,2013-02-26 08:04:00,
2013-02-26 03:10:00,23.1,21.1,30.04,North,355,0.0,0.0,92,0.00,,,0.00,Wunderground v.1.15,2013-02-26 08:10:00,
2013-02-26 03:15:00,23.1,21.1,30.04,North,355,0.0,0.0,92,0.00,,,0.00,Wunderground v.1.15,2013-02-26 08:15:00,
2013-02-26 03:21:00,23.3,21.3,30.04,North,355,0.0,0.0,92,0.00,,,0.00,Wunderground v.1.15,2013-02-26 08:21:00,
2013-02-26 03:26:00,23.3,21.3,30.02,North,355,0.0,0.0,92,0.00,,,0.00,Wunderground v.1.15,2013-02-26 08:26:00,
2013-02-26 03:31:00,23.3,21.3,30.02,North,355,0.0,0.0,92,0.00,,,0.00,Wunderground v.1.15,2013-02-26 08:31:00,
2013-02-26 03:36:00,23.4,21.4,30.02,North,355,0.0,0.0,92,0.00,,,0.00,Wunderground v.1.15,2013-02-26 08:36:00,
2013-02-26 03:41:00,23.5,21.5,30.02,North,355,0.0,0.0,92,0.00,,,0.00,Wunderground v.1.15,2013-02-26 08:41:00,
2013-02-26 03:46:00,23.6,21.6,30.02,North,355,0.0,0.0,92,0.00,,,0.00,Wunderground v.1.15,2013-02-26 08:46:00,
2013-02-26 03:52:00,23.7,21.7,30.01,North,355,0.0,0.0,92,0.00,,,0.00,Wunderground v.1.15,2013-02-26 08:52:00,
2013-02-26 03:57:00,23.7,21.7,30.01,North,355,0.0,0.0,92,0.00,,,0.00,Wunderground v.1.15,2013-02-26 08:57:00,
2013-02-26 04:03:00,23.8,21.8,30.02,North,355,0.0,0.0,92,0.00,,,0.00,Wunderground v.1.15,2013-02-26 09:03:00,
2013-02-26 04:08:00,23.9,21.9,30.01,North,355,0.0,0.0,92,0.00,,,0.00,Wunderground v.1.15,2013-02-26 09:08:00,
2013-02-26 04:14:00,23.9,21.9,30.00,North,355,0.0,0.0,92,0.00,,,0.00,Wunderground v.1.15,2013-02-26 09:14:00,
2013-02-26 04:20:00,24.0,22.0,30.00,North,355,0.0,0.0,92,0.00,,,0.00,Wunderground v.1.15,2013-02-26 09:20:00,
2013-02-26 04:25:00,24.1,22.1,30.00,North,355,0.0,2.0,92,0.00,,,0.00,Wunderground v.1.15,2013-02-26 09:25:00,
2013-02-26 04:31:00,24.2,22.2,29.99,North,355,0.0,0.0,92,0.00,,,0.00,Wunderground v.1.15,2013-02-26 09:31:00,
2013-02-26 04:37:00,24.3,22.3,29.99,North,355,0.0,0.0,92,0.00,,,0.00,Wunderground v.1.15,2013-02-26 09:37:00,
2013-02-26 04:42:00,24.4,22.4,29.99,North,355,0.0,0.0,92,0.00,,,0.00,Wunderground v.1.15,2013-02-26 09:42:00,
2013-02-26 04:47:00,24.8,22.8,29.98,North,355,0.0,0.0,92,0.00,,,0.00,Wunderground v.1.15,2013-02-26 09:47:00,
2013-02-26 04:52:00,24.9,23.2,29.99,North,355,0.0,0.0,93,0.00,,,0.00,Wunderground v.1.15,2013-02-26 09:52:00,
2013-02-26 04:58:00,25.1,23.1,29.99,North,355,0.0,0.0,92,0.00,,,0.00,Wunderground v.1.15,2013-02-26 09:58:00,
2013-02-26 05:03:00,25.2,25.0,29.99,North,355,0.0,0.0,99,0.00,,,0.00,Wunderground v.1.15,2013-02-26 10:03:00,
2013-02-26 05:08:00,25.3,23.3,30.00,North,355,0.0,0.0,92,0.00,,,0.00,Wunderground v.1.15,2013-02-26 10:08:00,
2013-02-26 05:13:00,25.4,23.4,30.00,North,355,0.0,0.0,92,0.00,,,0.00,Wunderground v.1.15,2013-02-26 10:13:00,
2013-02-26 05:18:00,25.5,23.5,30.00,North,355,0.0,0.0,92,0.00,,,0.00,Wunderground v.1.15,2013-02-26 10:18:00,
2013-02-26 05:24:00,25.7,23.7,30.00,North,355,0.0,0.0,92,0.00,,,0.00,Wunderground v.1.15,2013-02-26 10:24:00,
2013-02-26 05:30:00,25.7,23.7,29.99,North,355,0.0,0.0,92,0.00,,,0.00,Wunderground v.1.15,2013-02-26 10:30:00,
2013-02-26 05:36:00,25.8,23.8,29.99,North,355,0.0,2.0,92,0.00,,,0.00,Wunderground v.1.15,2013-02-26 10:36:00,
2013-02-26 05:42:00,26.0,23.7,29.99,North,355,0.0,2.0,91,0.00,,,0.00,Wunderground v.1.15,2013-02-26 10:42:00,
2013-02-26 05:47:00,26.0,23.7,29.99,North,355,0.0,2.0,91,0.00,,,0.00,Wunderground v.1.15,2013-02-26 10:47:00,
2013-02-26 05:53:00,26.1,23.8,29.99,North,355,0.0,2.0,91,0.00,,,0.00,Wunderground v.1.15,2013-02-26 10:53:00,
2013-02-26 05:58:00,26.2,23.9,29.99,North,355,0.0,2.0,91,0.00,,,0.00,Wunderground v.1.15,2013-02-26 10:58:00,
2013-02-26 06:03:00,26.2,23.9,29.99,North,355,0.0,0.0,91,0.00,,,0.00,Wunderground v.1.15,2013-02-26 11:03:00,
2013-02-26 06:09:00,26.3,24.0,29.98,North,355,0.0,1.0,91,0.00,,,0.00,Wunderground v.1.15,2013-02-26 11:09:00,
2013-02-26 06:41:00,26.6,24.1,29.98,North,355,0.0,0.0,90,0.00,,,0.00,Wunderground v.1.15,2013-02-26 11:41:00,
2013-02-26 06:46:00,26.7,24.2,29.97,North,355,0.0,0.0,90,0.00,,,0.00,Wunderground v.1.15,2013-02-26 11:46:00,
2013-02-26 06:52:00,26.8,24.3,29.96,North,355,0.0,0.0,90,0.00,,,0.00,Wunderground v.1.15,2013-02-26 11:52:00,
2013-02-26 06:57:00,26.8,24.3,29.95,North,355,0.0,0.0,90,0.00,,,0.00,Wunderground v.1.15,2013-02-26 11:57:00,
2013-02-26 07:02:00,26.9,24.4,29.96,North,355,0.0,0.0,90,0.00,,,0.00,Wunderground v.1.15,2013-02-26 12:02:00,
2013-02-26 07:07:00,27.0,24.5,29.96,North,355,0.0,0.0,90,0.00,,,0.00,Wunderground v.1.15,2013-02-26 12:07:00,
2013-02-26 07:13:00,27.1,24.6,29.96,North,355,0.0,0.0,90,0.00,,,0.00,Wunderground v.1.15,2013-02-26 12:13:00,
2013-02-26 07:18:00,27.2,24.4,29.96,North,355,0.0,1.0,89,0.00,,,0.00,Wunderground v.1.15,2013-02-26 12:18:00,
2013-02-26 07:23:00,27.4,24.6,29.96,North,355,0.0,0.0,89,0.00,,,0.00,Wunderground v.1.15,2013-02-26 12:23:00,
2013-02-26 07:29:00,27.6,24.8,29.96,North,355,0.0,0.0,89,0.00,,,0.00,Wunderground v.1.15,2013-02-26 12:29:00,
2013-02-26 07:34:00,27.8,25.0,29.95,North,355,0.0,2.0,89,0.00,,,0.00,Wunderground v.1.15,2013-02-26 12:34:00,
2013-02-26 07:40:00,28.1,25.3,29.95,North,355,0.0,2.0,89,0.00,,,0.00,Wunderground v.1.15,2013-02-26 12:40:00,
2013-02-26 07:45:00,28.4,25.6,29.95,North,355,0.0,2.0,89,0.00,,,0.00,Wunderground v.1.15,2013-02-26 12:45:00,
2013-02-26 07:50:00,28.7,25.6,29.95,North,355,0.0,2.0,88,0.00,,,0.00,Wunderground v.1.15,2013-02-26 12:50:00,
2013-02-26 07:55:00,29.2,25.8,29.95,North,355,0.0,2.0,87,0.00,,,0.00,Wunderground v.1.15,2013-02-26 12:55:00,
2013-02-26 08:01:00,29.4,26.0,29.94,SE,141,0.0,1.0,87,0.00,,,0.00,Wunderground v.1.15,2013-02-26 13:01:00,
2013-02-26 08:06:00,29.8,26.4,29.94,SE,141,0.0,1.0,87,0.00,,,0.00,Wunderground v.1.15,2013-02-26 13:06:00,
2013-02-26 08:12:00,30.6,26.6,29.95,ESE,111,0.0,2.0,85,0.00,,,0.00,Wunderground v.1.15,2013-02-26 13:12:00,
2013-02-26 08:18:00,31.5,26.6,29.94,East,88,1.0,2.0,82,0.00,,,0.00,Wunderground v.1.15,2013-02-26 13:18:00,
2013-02-26 08:23:00,31.8,26.9,29.95,East,88,1.0,1.0,82,0.00,,,0.00,Wunderground v.1.15,2013-02-26 13:23:00,
2013-02-26 08:28:00,32.2,27.0,29.95,East,88,0.0,1.0,81,0.00,,,0.00,Wunderground v.1.15,2013-02-26 13:28:00,
2013-02-26 08:33:00,32.6,27.4,29.95,East,88,0.0,2.0,81,0.00,,,0.00,Wunderground v.1.15,2013-02-26 13:33:00,
2013-02-26 08:38:00,32.9,27.4,29.94,East,101,0.0,2.0,80,0.00,,,0.00,Wunderground v.1.15,2013-02-26 13:38:00,
2013-02-26 08:43:00,33.3,27.2,29.94,ESE,120,0.0,2.0,78,0.00,,,0.00,Wunderground v.1.15,2013-02-26 13:43:00,
2013-02-26 08:48:00,33.8,27.4,29.94,ESE,122,1.0,2.0,77,0.00,,,0.00,Wunderground v.1.15,2013-02-26 13:48:00,
2013-02-26 08:53:00,34.4,27.6,29.94,SSE,150,1.0,2.0,76,0.00,,,0.00,Wunderground v.1.15,2013-02-26 13:53:00,
2013-02-26 08:58:00,34.9,27.5,29.94,SE,125,1.0,3.0,74,0.00,,,0.00,Wunderground v.1.15,2013-02-26 13:58:00,
2013-02-26 09:04:00,35.4,27.9,29.95,SSE,155,2.0,3.0,74,0.00,,,0.00,Wunderground v.1.15,2013-02-26 14:04:00,
2013-02-26 09:10:00,35.9,28.1,29.95,SSE,155,1.0,1.0,73,0.00,,,0.00,Wunderground v.1.15,2013-02-26 14:10:00,
2013-02-26 09:16:00,36.2,28.0,29.94,SSW,199,1.0,2.0,72,0.00,,,0.00,Wunderground v.1.15,2013-02-26 14:16:00,
2013-02-26 09:21:00,36.5,28.0,29.93,SE,137,1.0,1.0,71,0.00,,,0.00,Wunderground v.1.15,2013-02-26 14:21:00,
2013-02-26 09:27:00,36.8,27.9,29.93,SSW,200,1.0,4.0,70,0.00,,,0.00,Wunderground v.1.15,2013-02-26 14:27:00,
2013-02-26 09:32:00,37.0,28.1,29.93,SSE,157,2.0,4.0,70,0.00,,,0.00,Wunderground v.1.15,2013-02-26 14:32:00,
2013-02-26 09:37:00,37.3,28.4,29.93,South,169,2.0,4.0,70,0.00,,,0.00,Wunderground v.1.15,2013-02-26 14:37:00,
2013-02-26 09:43:00,37.7,28.8,29.93,ESE,121,2.0,7.0,70,0.00,,,0.00,Wunderground v.1.15,2013-02-26 14:43:00,
2013-02-26 09:48:00,37.9,28.6,29.93,SSE,149,2.0,7.0,69,0.00,,,0.00,Wunderground v.1.15,2013-02-26 14:48:00,
2013-02-26 09:53:00,38.2,29.3,29.93,SE,138,2.0,5.0,70,0.00,,,0.00,Wunderground v.1.15,2013-02-26 14:53:00,
2013-02-26 09:58:00,38.4,29.1,29.93,South,173,2.0,5.0,69,0.00,,,0.00,Wunderground v.1.15,2013-02-26 14:58:00,
2013-02-26 10:04:00,38.6,29.7,29.93,SE,141,3.0,5.0,70,0.00,,,0.00,Wunderground v.1.15,2013-02-26 15:04:00,
2013-02-26 10:09:00,38.7,29.4,29.93,SSE,154,3.0,8.0,69,0.00,,,0.00,Wunderground v.1.15,2013-02-26 15:09:00,
2013-02-26 10:14:00,38.8,29.5,29.93,SE,144,3.0,3.0,69,0.00,,,0.00,Wunderground v.1.15,2013-02-26 15:14:00,
2013-02-26 10:19:00,39.0,30.0,29.93,ESE,119,3.0,8.0,70,0.00,,,0.00,Wunderground v.1.15,2013-02-26 15:19:00,
2013-02-26 10:25:00,39.0,30.7,29.93,SSE,167,4.0,4.0,72,0.00,,,0.00,Wunderground v.1.15,2013-02-26 15:25:00,
2013-02-26 10:30:00,39.0,31.1,29.92,SE,130,3.0,3.0,73,0.00,,,0.00,Wunderground v.1.15,2013-02-26 15:30:00,
2013-02-26 10:35:00,38.9,31.6,29.92,ESE,119,2.0,6.0,75,0.00,,,0.00,Wunderground v.1.15,2013-02-26 15:35:00,
2013-02-26 10:40:00,38.8,31.9,29.93,SE,128,2.0,2.0,76,0.00,,,0.00,Wunderground v.1.15,2013-02-26 15:40:00,
2013-02-26 10:45:00,38.8,32.2,29.93,SE,134,3.0,6.0,77,0.00,,,0.00,Wunderground v.1.15,2013-02-26 15:45:00,
2013-02-26 10:50:00,38.7,32.7,29.93,ESE,121,2.0,6.0,79,0.00,,,0.00,Wunderground v.1.15,2013-02-26 15:50:00,
2013-02-26 10:55:00,38.6,32.6,29.93,SE,140,3.0,6.0,79,0.00,,,0.00,Wunderground v.1.15,2013-02-26 15:55:00,
2013-02-26 11:01:00,38.5,32.6,29.92,East,84,3.0,4.0,79,0.00,,,0.00,Wunderground v.1.15,2013-02-26 16:01:00,
2013-02-26 11:06:00,38.5,32.6,29.92,SSE,157,3.0,4.0,79,0.00,,,0.00,Wunderground v.1.15,2013-02-26 16:06:00,
2013-02-26 11:11:00,38.4,32.5,29.92,ESE,117,3.0,5.0,79,0.00,,,0.00,Wunderground v.1.15,2013-02-26 16:11:00,
2013-02-26 11:16:00,38.4,32.8,29.92,SSE,162,4.0,5.0,80,0.00,,,0.00,Wunderground v.1.15,2013-02-26 16:16:00,
2013-02-26 11:21:00,38.3,32.7,29.91,SSE,153,4.0,9.0,80,0.00,,,0.00,Wunderground v.1.15,2013-02-26 16:21:00,
2013-02-26 11:26:00,38.1,32.8,29.91,SE,134,5.0,9.0,81,0.00,,,0.01,Wunderground v.1.15,2013-02-26 16:26:00,
2013-02-26 11:32:00,37.8,33.1,29.91,SE,134,6.0,10.0,83,0.08,,,0.02,Wunderground v.1.15,2013-02-26 16:32:00,
2013-02-26 11:37:00,37.6,32.9,29.91,SSW,192,6.0,10.0,83,0.08,,,0.02,Wunderground v.1.15,2013-02-26 16:37:00,
2013-02-26 11:42:00,37.3,32.9,29.91,SSE,159,6.0,10.0,84,0.06,,,0.03,Wunderground v.1.15,2013-02-26 16:42:00,
2013-02-26 11:48:00,37.0,32.9,29.90,SE,141,6.0,10.0,85,0.06,,,0.03,Wunderground v.1.15,2013-02-26 16:48:00,
2013-02-26 11:53:00,36.8,32.7,29.90,ESE,117,7.0,10.0,85,0.05,,,0.03,Wunderground v.1.15,2013-02-26 16:53:00,
2013-02-26 11:58:00,36.6,32.5,29.90,SE,133,6.0,10.0,85,0.04,,,0.04,Wunderground v.1.15,2013-02-26 16:58:00,
2013-02-26 12:04:00,36.3,32.2,29.90,SE,125,7.0,10.0,85,0.04,,,0.04,Wunderground v.1.15,2013-02-26 17:04:00,
2013-02-26 12:10:00,36.1,32.3,29.89,SSE,150,7.0,7.0,86,0.04,,,0.04,Wunderground v.1.15,2013-02-26 17:10:00,
2013-02-26 12:16:00,35.9,32.4,29.88,SSE,153,6.0,9.0,87,0.00,,,0.04,Wunderground v.1.15,2013-02-26 17:16:00,
2013-02-26 12:21:00,35.8,32.3,29.88,ESE,121,6.0,8.0,87,0.00,,,0.05,Wunderground v.1.15,2013-02-26 17:21:00,
2013-02-26 12:26:00,35.7,32.5,29.88,East,98,6.0,10.0,88,0.00,,,0.05,Wunderground v.1.15,2013-02-26 17:26:00,
2013-02-26 12:31:00,35.6,32.4,29.87,SE,140,6.0,12.0,88,0.00,,,0.05,Wunderground v.1.15,2013-02-26 17:31:00,
2013-02-26 12:36:00,35.5,32.3,29.86,ESE,121,5.0,12.0,88,0.00,,,0.06,Wunderground v.1.15,2013-02-26 17:36:00,
2013-02-26 12:41:00,35.4,32.2,29.86,ESE,118,5.0,12.0,88,0.00,,,0.06,Wunderground v.1.15,2013-02-26 17:41:00,
2013-02-26 12:46:00,35.3,32.4,29.85,ESE,115,5.0,12.0,89,0.00,,,0.06,Wunderground v.1.15,2013-02-26 17:46:00,
2013-02-26 12:51:00,35.3,32.4,29.85,ESE,123,4.0,12.0,89,0.04,,,0.07,Wunderground v.1.15,2013-02-26 17:51:00,
2013-02-26 12:56:00,35.2,32.6,29.84,East,101,4.0,12.0,90,0.04,,,0.07,Wunderground v.1.15,2013-02-26 17:56:00,
2013-02-26 13:02:00,35.1,32.5,29.83,SSE,156,5.0,6.0,90,0.07,,,0.08,Wunderground v.1.15,2013-02-26 18:02:00,
2013-02-26 13:07:00,35.0,32.4,29.82,SSE,150,5.0,9.0,90,0.18,,,0.10,Wunderground v.1.15,2013-02-26 18:07:00,
2013-02-26 13:13:00,35.0,32.6,29.80,SE,134,4.0,5.0,91,0.15,,,0.11,Wunderground v.1.15,2013-02-26 18:13:00,
2013-02-26 13:18:00,34.9,32.5,29.81,South,171,4.0,5.0,91,0.07,,,0.11,Wunderground v.1.15,2013-02-26 18:18:00,
2013-02-26 13:23:00,34.9,32.5,29.81,SE,140,3.0,4.0,91,0.07,,,0.12,Wunderground v.1.15,2013-02-26 18:23:00,
2013-02-26 13:28:00,35.0,32.9,29.81,SSE,149,2.0,4.0,92,0.06,,,0.12,Wunderground v.1.15,2013-02-26 18:28:00,
2013-02-26 13:33:00,35.1,33.0,29.80,East,92,2.0,15.0,92,0.04,,,0.13,Wunderground v.1.15,2013-02-26 18:33:00,
2013-02-26 13:38:00,35.1,33.0,29.80,East,96,2.0,15.0,92,0.16,,,0.14,Wunderground v.1.15,2013-02-26 18:38:00,
2013-02-26 13:43:00,35.1,33.3,29.79,SSE,163,2.0,15.0,93,0.10,,,0.15,Wunderground v.1.15,2013-02-26 18:43:00,
2013-02-26 13:48:00,35.2,33.4,29.79,SE,141,3.0,15.0,93,0.20,,,0.16,Wunderground v.1.15,2013-02-26 18:48:00,
2013-02-26 13:53:00,35.3,33.5,29.79,ESE,104,4.0,15.0,93,0.09,,,0.17,Wunderground v.1.15,2013-02-26 18:53:00,
2013-02-26 13:58:00,35.4,33.6,29.79,SE,131,5.0,15.0,93,0.14,,,0.18,Wunderground v.1.15,2013-02-26 18:58:00,
2013-02-26 14:03:00,35.5,33.9,29.79,East,86,5.0,10.0,94,0.13,,,0.19,Wunderground v.1.15,2013-02-26 19:03:00,
2013-02-26 14:09:00,35.7,34.1,29.78,ESE,116,6.0,10.0,94,0.14,,,0.20,Wunderground v.1.15,2013-02-26 19:09:00,
2013-02-26 14:14:00,35.7,34.1,29.78,ESE,122,5.0,8.0,94,0.08,,,0.21,Wunderground v.1.15,2013-02-26 19:14:00,
2013-02-26 14:19:00,35.8,34.2,29.77,SE,125,4.0,8.0,94,0.14,,,0.22,Wunderground v.1.15,2013-02-26 19:19:00,
2013-02-26 14:24:00,35.8,34.2,29.76,East,101,3.0,5.0,94,0.22,,,0.24,Wunderground v.1.15,2013-02-26 19:24:00,
2013-02-26 14:29:00,35.8,34.2,29.75,SE,145,3.0,9.0,94,0.39,,,0.26,Wunderground v.1.15,2013-02-26 19:29:00,
2013-02-26 14:34:00,35.9,34.3,29.75,SE,130,4.0,13.0,94,0.59,,,0.30,Wunderground v.1.15,2013-02-26 19:34:00,
2013-02-26 14:39:00,35.9,34.6,29.75,SSE,158,5.0,13.0,95,0.26,,,0.32,Wunderground v.1.15,2013-02-26 19:39:00,
2013-02-26 14:44:00,36.0,34.7,29.75,ESE,109,5.0,13.0,95,0.25,,,0.34,Wunderground v.1.15,2013-02-26 19:44:00,
2013-02-26 14:50:00,36.2,34.9,29.75,ESE,116,6.0,6.0,95,0.28,,,0.36,Wunderground v.1.15,2013-02-26 19:50:00,
2013-02-26 14:55:00,36.2,34.9,29.75,SSE,163,5.0,13.0,95,0.74,,,0.40,Wunderground v.1.15,2013-02-26 19:55:00,
2013-02-26 15:01:00,36.3,35.0,29.74,SE,125,5.0,5.0,95,0.51,,,0.48,Wunderground v.1.15,2013-02-26 20:01:00,
2013-02-26 15:06:00,36.3,35.0,29.74,SE,144,7.0,9.0,95,0.14,,,0.49,Wunderground v.1.15,2013-02-26 20:06:00,
2013-02-26 15:11:00,36.4,35.1,29.74,SE,134,6.0,6.0,95,0.09,,,0.49,Wunderground v.1.15,2013-02-26 20:11:00,
2013-02-26 15:16:00,36.4,35.4,29.73,SE,146,5.0,11.0,96,0.05,,,0.49,Wunderground v.1.15,2013-02-26 20:16:00,
2013-02-26 15:21:00,36.5,35.5,29.72,SE,138,6.0,6.0,96,0.04,,,0.49,Wunderground v.1.15,2013-02-26 20:21:00,
2013-02-26 15:27:00,36.8,35.8,29.72,East,90,6.0,8.0,96,0.00,,,0.49,Wunderground v.1.15,2013-02-26 20:27:00,
2013-02-26 15:32:00,37.1,36.1,29.72,ESE,112,6.0,12.0,96,0.00,,,0.49,Wunderground v.1.15,2013-02-26 20:32:00,
2013-02-26 15:37:00,37.5,36.2,29.71,SSE,154,6.0,12.0,95,0.00,,,0.49,Wunderground v.1.15,2013-02-26 20:37:00,
2013-02-26 15:42:00,37.8,36.5,29.70,ESE,114,5.0,12.0,95,0.00,,,0.49,Wunderground v.1.15,2013-02-26 20:42:00,
2013-02-26 15:47:00,38.1,36.8,29.70,SSE,148,6.0,12.0,95,0.00,,,0.49,Wunderground v.1.15,2013-02-26 20:47:00,
2013-02-26 15:52:00,38.8,37.5,29.71,SE,131,6.0,14.0,95,0.00,,,0.49,Wunderground v.1.15,2013-02-26 20:52:00,
2013-02-26 15:57:00,39.8,37.7,29.70,ESE,111,7.0,14.0,92,0.00,,,0.49,Wunderground v.1.15,2013-02-26 20:57:00,
2013-02-26 16:03:00,39.8,37.4,29.71,ESE,122,6.0,11.0,91,0.00,,,0.49,Wunderground v.1.15,2013-02-26 21:03:00,
2013-02-26 16:08:00,39.8,36.8,29.70,SE,128,8.0,12.0,89,0.00,,,0.49,Wunderground v.1.15,2013-02-26 21:08:00,
2013-02-26 16:14:00,39.8,36.8,29.70,SE,138,5.0,11.0,89,0.00,,,0.49,Wunderground v.1.15,2013-02-26 21:14:00,
2013-02-26 16:20:00,39.9,36.6,29.69,ESE,114,5.0,11.0,88,0.00,,,0.49,Wunderground v.1.15,2013-02-26 21:20:00,
2013-02-26 16:25:00,40.0,36.7,29.69,SE,145,7.0,11.0,88,0.00,,,0.49,Wunderground v.1.15,2013-02-26 21:25:00,
2013-02-26 16:30:00,40.0,36.7,29.69,SE,139,6.0,11.0,88,0.00,,,0.49,Wunderground v.1.15,2013-02-26 21:30:00,
2013-02-26 16:35:00,40.0,36.4,29.69,ESE,116,6.0,20.0,87,0.00,,,0.49,Wunderground v.1.15,2013-02-26 21:35:00,
2013-02-26 16:40:00,40.0,36.4,29.68,ESE,117,6.0,20.0,87,0.00,,,0.49,Wunderground v.1.15,2013-02-26 21:40:00,
2013-02-26 16:45:00,40.1,36.5,29.68,SSE,157,5.0,20.0,87,0.00,,,0.49,Wunderground v.1.15,2013-02-26 21:45:00,
2013-02-26 16:50:00,40.0,36.4,29.67,SSE,159,5.0,20.0,87,0.00,,,0.49,Wunderground v.1.15,2013-02-26 21:50:00,
2013-02-26 16:56:00,39.9,36.6,29.69,ESE,111,5.0,20.0,88,0.00,,,0.50,Wunderground v.1.15,2013-02-26 21:56:00,
2013-02-26 17:02:00,39.7,36.7,29.67,ESE,110,5.0,7.0,89,0.27,,,0.53,Wunderground v.1.15,2013-02-26 22:02:00,
2013-02-26 17:07:00,39.5,36.8,29.67,East,95,4.0,7.0,90,0.09,,,0.53,Wunderground v.1.15,2013-02-26 22:07:00,
2013-02-26 17:12:00,39.4,36.7,29.67,East,98,2.0,5.0,90,0.05,,,0.53,Wunderground v.1.15,2013-02-26 22:12:00,
2013-02-26 17:17:00,39.3,36.9,29.67,SE,136,1.0,5.0,91,0.05,,,0.54,Wunderground v.1.15,2013-02-26 22:17:00,
2013-02-26 17:22:00,39.3,36.9,29.66,SE,136,1.0,2.0,91,0.05,,,0.54,Wunderground v.1.15,2013-02-26 22:22:00,
2013-02-26 17:27:00,39.1,36.7,29.66,South,183,1.0,3.0,91,0.04,,,0.54,Wunderground v.1.15,2013-02-26 22:27:00,
2013-02-26 17:33:00,39.1,37.0,29.69,SSE,153,3.0,16.0,92,0.00,,,0.55,Wunderground v.1.15,2013-02-26 22:33:00,
2013-02-26 17:38:00,39.1,37.0,29.71,SE,129,3.0,16.0,92,0.34,,,0.59,Wunderground v.1.15,2013-02-26 22:38:00,
2013-02-26 17:44:00,39.0,36.9,29.72,South,169,3.0,16.0,92,0.25,,,0.62,Wunderground v.1.15,2013-02-26 22:44:00,
2013-02-26 17:49:00,38.9,37.0,29.71,SE,130,2.0,16.0,93,0.25,,,0.65,Wunderground v.1.15,2013-02-26 22:49:00,
2013-02-26 17:54:00,38.8,36.9,29.71,SE,130,1.0,16.0,93,0.18,,,0.67,Wunderground v.1.15,2013-02-26 22:54:00,
2013-02-26 17:59:00,38.5,36.9,29.69,SE,130,1.0,16.0,94,0.26,,,0.68,Wunderground v.1.15,2013-02-26 22:59:00,
2013-02-26 18:04:00,38.2,36.6,29.69,East,91,0.0,1.0,94,0.12,,,0.69,Wunderground v.1.15,2013-02-26 23:04:00,
2013-02-26 18:10:00,38.1,36.5,29.70,East,95,0.0,1.0,94,0.33,,,0.71,Wunderground v.1.15,2013-02-26 23:10:00,
2013-02-26 18:16:00,38.0,36.4,29.72,East,95,0.0,1.0,94,0.17,,,0.73,Wunderground v.1.15,2013-02-26 23:16:00,
2013-02-26 18:21:00,37.9,36.6,29.70,East,95,0.0,1.0,95,0.18,,,0.74,Wunderground v.1.15,2013-02-26 23:21:00,
2013-02-26 18:27:00,37.9,36.6,29.69,ESE,102,1.0,3.0,95,0.07,,,0.75,Wunderground v.1.15,2013-02-26 23:27:00,
2013-02-26 18:32:00,37.9,36.6,29.69,ESE,103,1.0,9.0,95,0.07,,,0.75,Wunderground v.1.15,2013-02-26 23:32:00,
2013-02-26 18:37:00,37.8,36.5,29.70,ESE,102,0.0,9.0,95,0.06,,,0.75,Wunderground v.1.15,2013-02-26 23:37:00,
2013-02-26 18:42:00,37.8,36.8,29.70,ESE,105,1.0,9.0,96,0.04,,,0.75,Wunderground v.1.15,2013-02-26 23:42:00,
2013-02-26 18:47:00,37.8,36.8,29.69,SE,145,3.0,9.0,96,0.00,,,0.75,Wunderground v.1.15,2013-02-26 23:47:00,
2013-02-26 18:52:00,37.8,36.8,29.69,SE,128,4.0,9.0,96,0.00,,,0.76,Wunderground v.1.15,2013-02-26 23:52:00,
2013-02-26 18:57:00,37.8,36.8,29.68,SSE,153,4.0,9.0,96,0.00,,,0.76,Wunderground v.1.15,2013-02-26 23:57:00,
2013-02-26 19:03:00,37.8,36.8,29.68,ESE,120,4.0,9.0,96,0.00,,,0.76,Wunderground v.1.15,2013-02-27 00:03:00,
2013-02-26 19:08:00,37.8,36.8,29.68,SE,133,4.0,9.0,96,0.00,,,0.76,Wunderground v.1.15,2013-02-27 00:08:00,
2013-02-26 19:13:00,37.8,36.8,29.68,ESE,121,3.0,3.0,96,0.00,,,0.76,Wunderground v.1.15,2013-02-27 00:13:00,
2013-02-26 19:18:00,37.8,36.8,29.69,SSE,154,2.0,3.0,96,0.00,,,0.76,Wunderground v.1.15,2013-02-27 00:18:00,
2013-02-26 19:23:00,37.8,36.8,29.69,SE,140,1.0,4.0,96,0.00,,,0.77,Wunderground v.1.15,2013-02-27 00:23:00,
2013-02-26 19:28:00,37.7,36.7,29.68,ESE,120,3.0,7.0,96,0.00,,,0.77,Wunderground v.1.15,2013-02-27 00:28:00,
2013-02-26 19:33:00,37.8,36.8,29.68,ESE,121,5.0,7.0,96,0.00,,,0.77,Wunderground v.1.15,2013-02-27 00:33:00,
2013-02-26 19:38:00,37.7,36.7,29.68,SSE,161,4.0,7.0,96,0.04,,,0.78,Wunderground v.1.15,2013-02-27 00:38:00,
2013-02-26 19:43:00,37.7,36.7,29.68,SE,136,2.0,5.0,96,0.04,,,0.78,Wunderground v.1.15,2013-02-27 00:43:00,
2013-02-26 19:48:00,37.7,36.7,29.68,SE,138,2.0,5.0,96,0.04,,,0.78,Wunderground v.1.15,2013-02-27 00:48:00,
2013-02-26 19:53:00,37.7,36.7,29.67,SE,130,3.0,5.0,96,0.04,,,0.78,Wunderground v.1.15,2013-02-27 00:53:00,
2013-02-26 19:59:00,37.7,36.7,29.67,ESE,107,4.0,7.0,96,0.00,,,0.78,Wunderground v.1.15,2013-02-27 00:59:00,
2013-02-26 20:04:00,37.7,36.7,29.67,SE,140,4.0,4.0,96,0.00,,,0.78,Wunderground v.1.15,2013-02-27 01:04:00,
2013-02-26 20:11:00,37.7,36.7,29.67,SE,144,3.0,10.0,96,0.00,,,0.78,Wunderground v.1.15,2013-02-27 01:11:00,
2013-02-26 20:16:00,37.8,36.5,29.67,West,259,2.0,10.0,95,0.00,,,0.78,Wunderground v.1.15,2013-02-27 01:16:00,
2013-02-26 20:21:00,37.9,36.6,29.67,SSE,161,2.0,2.0,95,0.00,,,0.78,Wunderground v.1.15,2013-02-27 01:21:00,
2013-02-26 20:26:00,37.9,36.6,29.67,SSE,161,1.0,2.0,95,0.00,,,0.78,Wunderground v.1.15,2013-02-27 01:26:00,
2013-02-26 20:31:00,37.9,36.6,29.66,SE,136,1.0,11.0,95,0.00,,,0.78,Wunderground v.1.15,2013-02-27 01:31:00,
2013-02-26 20:37:00,38.0,36.7,29.65,East,87,3.0,11.0,95,0.00,,,0.78,Wunderground v.1.15,2013-02-27 01:37:00,
2013-02-26 20:42:00,38.2,36.9,29.65,SE,126,4.0,11.0,95,0.00,,,0.78,Wunderground v.1.15,2013-02-27 01:42:00,
2013-02-26 20:47:00,38.5,36.9,29.65,ENE,63,5.0,11.0,94,0.00,,,0.78,Wunderground v.1.15,2013-02-27 01:47:00,
2013-02-26 20:52:00,38.8,36.9,29.64,SE,130,6.0,11.0,93,0.00,,,0.78,Wunderground v.1.15,2013-02-27 01:52:00,
2013-02-26 20:57:00,38.9,37.0,29.64,ENE,78,5.0,11.0,93,0.00,,,0.78,Wunderground v.1.15,2013-02-27 01:57:00,
2013-02-26 21:02:00,39.0,36.9,29.64,ESE,107,4.0,4.0,92,0.00,,,0.78,Wunderground v.1.15,2013-02-27 02:02:00,
2013-02-26 21:08:00,39.1,37.0,29.64,SE,132,4.0,7.0,92,0.00,,,0.78,Wunderground v.1.15,2013-02-27 02:08:00,
2013-02-26 21:13:00,39.2,37.1,29.63,ESE,109,4.0,8.0,92,0.00,,,0.78,Wunderground v.1.15,2013-02-27 02:13:00,
2013-02-26 21:19:00,39.3,36.9,29.63,SE,134,4.0,8.0,91,0.00,,,0.78,Wunderground v.1.15,2013-02-27 02:19:00,
2013-02-26 21:25:00,39.4,37.0,29.63,SSE,148,4.0,6.0,91,0.00,,,0.78,Wunderground v.1.15,2013-02-27 02:25:00,
2013-02-26 21:31:00,39.5,36.8,29.62,ESE,121,4.0,4.0,90,0.00,,,0.78,Wunderground v.1.15,2013-02-27 02:31:00,
2013-02-26 21:36:00,39.5,36.8,29.62,SE,126,3.0,10.0,90,0.00,,,0.78,Wunderground v.1.15,2013-02-27 02:36:00,
2013-02-26 21:41:00,39.6,36.9,29.62,SSE,155,4.0,10.0,90,0.00,,,0.78,Wunderground v.1.15,2013-02-27 02:41:00,
2013-02-26 21:46:00,39.7,37.0,29.62,East,82,3.0,10.0,90,0.00,,,0.78,Wunderground v.1.15,2013-02-27 02:46:00,
2013-02-26 21:52:00,39.6,36.9,29.62,ESE,110,1.0,10.0,90,0.00,,,0.78,Wunderground v.1.15,2013-02-27 02:52:00,
2013-02-26 21:57:00,39.6,36.9,29.62,SE,132,2.0,10.0,90,0.00,,,0.78,Wunderground v.1.15,2013-02-27 02:57:00,
2013-02-26 22:02:00,39.5,36.8,29.61,SE,132,3.0,4.0,90,0.00,,,0.78,Wunderground v.1.15,2013-02-27 03:02:00,
2013-02-26 22:08:00,39.6,37.2,29.61,SE,134,3.0,5.0,91,0.00,,,0.78,Wunderground v.1.15,2013-02-27 03:08:00,
2013-02-26 22:13:00,39.5,37.1,29.61,ESE,111,2.0,3.0,91,0.00,,,0.78,Wunderground v.1.15,2013-02-27 03:13:00,
2013-02-26 22:18:00,39.5,37.1,29.61,ESE,111,1.0,3.0,91,0.00,,,0.78,Wunderground v.1.15,2013-02-27 03:18:00,
2013-02-26 22:23:00,39.4,37.3,29.61,ESE,111,0.0,0.0,92,0.00,,,0.78,Wunderground v.1.15,2013-02-27 03:23:00,
2013-02-26 22:28:00,39.3,37.2,29.61,ESE,117,0.0,5.0,92,0.00,,,0.78,Wunderground v.1.15,2013-02-27 03:28:00,
2013-02-26 22:34:00,39.2,37.3,29.60,SE,129,1.0,10.0,93,0.00,,,0.78,Wunderground v.1.15,2013-02-27 03:34:00,
2013-02-26 22:39:00,39.0,37.1,29.60,SE,128,2.0,10.0,93,0.00,,,0.78,Wunderground v.1.15,2013-02-27 03:39:00,
2013-02-26 22:47:00,38.9,37.0,29.61,SE,140,3.0,3.0,93,0.00,,,0.78,Wunderground v.1.15,2013-02-27 03:47:00,
2013-02-26 22:53:00,38.9,37.0,29.61,SE,143,2.0,4.0,93,0.00,,,0.78,Wunderground v.1.15,2013-02-27 03:53:00,
2013-02-26 22:58:00,38.9,37.3,29.61,SE,142,1.0,1.0,94,0.00,,,0.78,Wunderground v.1.15,2013-02-27 03:58:00,
2013-02-26 23:04:00,38.9,37.3,29.61,SE,142,1.0,2.0,94,0.00,,,0.78,Wunderground v.1.15,2013-02-27 04:04:00,
2013-02-26 23:09:00,38.9,37.3,29.61,SE,143,0.0,2.0,94,0.00,,,0.78,Wunderground v.1.15,2013-02-27 04:09:00,
2013-02-26 23:17:00,38.9,37.3,29.60,SSE,156,2.0,2.0,94,0.00,,,0.78,Wunderground v.1.15,2013-02-27 04:17:00,
2013-02-26 23:23:00,38.9,37.3,29.61,SSE,156,1.0,2.0,94,0.00,,,0.78,Wunderground v.1.15,2013-02-27 04:23:00,
2013-02-26 23:28:00,38.8,37.5,29.61,SSE,156,0.0,1.0,95,0.00,,,0.78,Wunderground v.1.15,2013-02-27 04:28:00,
2013-02-26 23:34:00,38.7,37.1,29.61,SSE,156,0.0,1.0,94,0.00,,,0.78,Wunderground v.1.15,2013-02-27 04:34:00,
2013-02-26 23:40:00,38.6,37.3,29.60,SSE,156,0.0,0.0,95,0.00,,,0.78,Wunderground v.1.15,2013-02-27 04:40:00,
2013-02-26 23:45:00,38.6,37.3,29.60,SSE,156,0.0,0.0,95,0.00,,,0.78,Wunderground v.1.15,2013-02-27 04:45:00,
2013-02-26 23:50:00,38.4,37.1,29.60,SSE,156,0.0,0.0,95,0.00,,,0.78,Wunderground v.1.15,2013-02-27 04:50:00,
2013-02-26 23:56:00,38.3,37.0,29.60,ESE,111,0.0,1.0,95,0.00,,,0.78,Wunderground v.1.15,2013-02-27 04:56:00,